Location: Kitchener-Waterloo
(43.4500°N, 80.5000°W)
Time: 17:24:46
(UTC-04:00)

Daily predictions for brighter satellites

Satellite Brightness Start Highest point End
(mag) Time Altitude Azimuth Time Altitude Azimuth Time Altitude Azimuth
ALOS 3.5 20:43:45 10° S 20:48:13 46° W 20:52:44 10° NNW
Milstar 3 4.3 20:42:29 10° WSW 20:49:36 26° S 20:55:08 10° SE
Cosmos 1862 4.2 20:48:53 10° N 20:52:32 32° ENE 20:56:11 10° SE
Cosmos 220 Rocket 4.1 20:48:19 10° NNW 20:52:47 75° ENE 20:57:13 10° SSE
Meteor 1-29 4.0 20:51:59 10° NE 20:54:58 26° E 20:57:56 10° SSE
Envisat 3.3 20:53:04 10° SE 20:57:56 49° ENE 21:02:50 10° N
ATLAS CENTAUR R/B 4.1 20:56:03 10° W 20:58:04 16° SW 21:01:22 10° S
USA 234 3.5 20:54:23 10° ESE 21:00:50 64° NNE 21:07:18 10° NW
Resurs 01 Rocket 2.4 20:59:12 10° S 21:03:34 57° W 21:07:59 10° NNW
Intercosmos 25 Rocket 3.3 21:01:34 10° SSE 21:04:42 50° E 21:08:45 10° NNE
Cosmos 1455 3.7 21:03:43 10° SSW 21:07:18 41° WNW 21:10:55 10° N
OAO 3 Rocket 4.3 21:05:19 10° WSW 21:09:35 31° S 21:13:18 13° SE
Cosmos 1939 Rocket 3.2 21:06:19 10° SSE 21:10:13 47° ENE 21:14:04 10° N
YAOGAN 6 3.7 21:10:21 13° SE 21:12:58 27° ENE 21:16:05 10° NNE
Helios 1B rocket 2.4 21:10:59 10° NNE 21:15:04 64° ESE 21:19:08 10° S
Lacrosse 4 Rocket 1.8 21:10:54 10° NW 21:15:12 69° WSW 21:19:35 10° SSE
Atlas Centaur 2 3.8 21:15:28 10° SW 21:20:57 25° SSE 21:25:41 15° ESE
Sich 1 Rocket 4.5 21:17:16 10° N 21:21:18 32° ENE 21:24:14 16° SE
Meteor 2-10 Rocket 4.3 21:16:51 10° SSE 21:22:13 40° E 21:27:34 10° NNE
ERBS 4.4 21:20:11 10° WNW 21:22:57 22° SW 21:25:43 10° S
Cosmos 1908 Rocket 4.3 21:20:35 10° N 21:24:32 33° ENE 21:27:14 17° SE
Abrixas rocket 3.5 21:22:25 10° W 21:25:33 38° N 21:28:39 10° ENE
ERS-1 Rocket 3.5 21:22:05 14° SE 21:26:04 43° ENE 21:30:49 10° N
Cosmos 2026 Rocket 4.2 21:23:44 10° N 21:29:58 76° W 21:36:05 10° S
Cosmos 2263 Rocket 2.1 21:26:13 10° NNW 21:31:50 87° ENE 21:36:41 14° SSE
SeaSat 1 3.7 21:31:06 15° E 21:34:10 27° NE 21:38:16 10° N
SJ-11-01 4.3 21:33:33 10° S 21:38:14 81° WSW 21:42:55 10° NNW
Cosmos 2322 Rocket 2.7 21:35:42 10° SW 21:41:16 65° WNW 21:46:53 10° NNE
CZ-4B DEB 3.3 21:38:38 12° S 21:41:23 52° W 21:44:22 10° NNW
Cosmos 1733 Rocket 3.5 21:38:57 10° NNW 21:43:22 65° W 21:47:46 10° S
USA 229 DEB 4.0 21:37:29 10° S 21:43:49 43° ESE 21:50:17 10° NE
USA 229 4.0 21:37:37 10° S 21:43:56 42° ESE 21:50:23 10° NE
COSMOS 2428 3.7 21:43:30 21° SE 21:45:27 25° ESE 21:50:02 10° NE
Okean 2 Rocket 4.3 21:44:02 10° NNE 21:47:53 27° ENE 21:49:12 23° ESE
Cosmos 1992 Rocket 4.3 21:43:58 10° SSW 21:49:11 72° WNW 21:54:27 10° NNE
Cosmos 2360 Rocket 2.2 21:44:42 10° S 21:50:16 61° ESE 21:55:51 10° NNE
Cosmos 1825 3.9 21:46:57 10° NNW 21:50:23 32° W 21:53:48 10° SSW
Cosmos 1862 Rocket 4.0 21:48:16 10° SSW 21:52:42 65° W 21:57:11 10° N
USA 186 4.4 21:51:04 10° SW 21:52:43 14° W 21:54:26 10° NW
Okean 1-7 3.7 21:56:12 30° ESE 21:57:18 35° E 22:01:19 10° NNE
NOAA 11 4.2 21:58:33 25° SSE 22:01:47 66° ENE 22:07:14 10° N
MetOp-B 4.2 22:00:03 26° SE 22:03:01 65° ENE 22:08:20 10° N
Cosmos 2322 3.6 21:57:23 10° SSW 22:03:02 67° ESE 22:08:43 10° NNE
SPOT 5 3.1 22:02:05 31° SE 22:04:03 50° ENE 22:08:31 10° N
ATLAS 5 CENTAUR R/B 2.5 22:01:52 10° NW 22:07:52 76° SW 22:11:35 27° SSE
Cosmos 1606 4.5 22:10:36 18° ENE 22:10:36 18° ENE 22:12:21 10° NE
SL-16 R/B 3.6 22:05:21 10° SW 22:10:39 40° WNW 22:16:00 10° NNE
Cosmos 1703 Rocket 3.4 22:10:28 25° S 22:13:00 79° E 22:17:27 10° N
ARGOS 3.1 22:15:13 34° SE 22:17:32 67° ENE 22:22:54 10° N
Cosmos 2266 Rocket 4.0 22:12:13 10° N 22:18:33 90° W 22:22:35 24° S
Cosmos 2333 4.4 22:23:21 36° SSE 22:25:08 48° ESE 22:30:39 10° NE
YAOGAN 11 4.1 22:23:44 41° S 22:25:14 81° WSW 22:29:36 10° NNW
Cosmos 968 Rocket 3.9 22:20:10 10° NNW 22:25:17 59° WSW 22:27:52 29° S
Cosmos 2333 Rocket 3.5 22:26:29 24° E 22:26:29 24° E 22:29:59 10° NE
Cosmos 2237 Rocket 4.0 22:29:25 16° ENE 22:29:25 16° ENE 22:31:19 10° ENE
Cosmos 2221 Rocket 3.4 22:26:56 40° S 22:28:30 86° E 22:32:57 10° N
Cosmos 1867 3.9 22:24:13 10° NW 22:29:34 58° WSW 22:31:43 34° S
Cosmos 2278 Rocket 3.4 22:25:19 10° N 22:30:08 28° NE 22:31:49 24° E
H-2A R/B 2.1 22:31:00 45° ESE 22:32:05 55° ENE 22:36:54 10° N
Cosmos 1844 Rocket 2.7 22:28:45 10° NNW 22:34:19 63° ENE 22:35:50 45° ESE
SL-08 RB Rocket 3.6 22:35:33 56° SSE 22:36:29 81° ENE 22:41:03 10° N
Cosmos 1782 2.9 22:42:03 61° ENE 22:42:03 61° ENE 22:45:39 10° NNE
Landsat 7 4.0 22:41:57 51° E 22:42:26 54° ENE 22:47:05 10° N
Cosmos 1244 Rocket 4.5 22:36:39 10° N 22:42:53 67° E 22:44:46 45° SE
USA 234 4.0 22:41:13 28° S 22:44:01 41° SW 22:50:10 10° WNW
CZ-4C R/B 3.5 22:41:58 10° NNW 22:48:36 44° NE 22:51:55 29° E
Cosmos 1570 Rocket 4.3 22:52:37 49° E 22:52:37 49° E 22:57:17 10° NNE
Cosmos 1553 Rocket 4.2 22:52:37 46° ESE 22:53:26 49° E 22:59:23 10° NNE
Cosmos 2219 Rocket 2.3 22:54:47 53° ESE 22:54:47 53° ESE 23:00:09 10° NNE
IGS 5A 4.2 22:56:33 41° NE 22:56:33 41° NE 22:59:56 10° N
H-2A R/B 2.3 22:57:30 57° NE 22:57:30 57° NE 23:01:27 10° N
Terra 2.1 22:57:34 53° ENE 22:57:34 53° ENE 23:02:13 10° N
Cosmos 1346 Rocket 4.4 23:01:21 25° NE 23:01:21 25° NE 23:03:20 10° NNE
Meteor 1-27 Rocket 3.9 22:59:53 50° E 22:59:53 50° E 23:05:15 10° NNE
Cosmos 2208 Rocket 4.3 23:00:32 52° E 23:00:32 52° E 23:05:15 10° NNE
Abrixas rocket 4.0 22:59:43 10° WNW 23:02:05 31° NNW 23:02:05 31° NNW
Atlas Centaur 2 3.8 23:03:10 10° WSW 23:08:20 30° SSW 23:08:20 30° SSW
SeaSat 1 2.9 23:10:54 46° SW 23:11:27 48° WSW 23:16:14 10° NW
SPOT 1/Viking Rocket 4.2 23:18:47 41° SW 23:19:46 46° W 23:24:48 10° NNW
Cosmos 1300 Rocket 4.3 23:17:11 10° N 23:20:28 47° NNE 23:20:28 47° NNE
Meteor 1-11 Rocket 3.5 23:17:39 10° N 23:23:12 82° E 23:23:21 81° ESE
S3M 3.8 23:22:42 70° SSE 23:23:22 79° E 23:29:35 10° N
Cosmos 1898 Rocket 3.9 23:23:19 10° NNW 23:28:03 52° NE 23:28:03 52° NE
COSMOS 2428 3.5 23:25:21 18° SW 23:29:23 49° WNW 23:34:56 10° NNE
NOSS 3-1 (C) 3.3 23:28:27 63° SW 23:29:31 89° SE 23:36:04 10° NE
SL-19 R/B 4.3 23:24:32 10° NNE 23:30:40 90° NNW 23:31:17 73° SSW
Cosmos 1633 4.3 23:28:01 10° NNW 23:30:15 32° NW 23:30:15 32° NW
Cosmos 2360 Rocket 4.4 23:30:14 10° WSW 23:34:42 23° NW 23:39:12 10° N
Iridium 4 Rocket 4.0 23:32:49 10° N 23:35:39 42° N 23:35:39 42° N
Cosmos 1536 4.3 23:38:15 10° N 23:40:40 34° N 23:40:40 34° N
Cosmos 1980 3.7 23:43:54 70° NE 23:43:54 70° NE 23:48:54 10° NNE
Cosmos 1844 4.2 23:37:49 10° NW 23:43:15 48° WSW 23:43:17 48° WSW
NOSS 3-1 (A) 3.2 23:45:11 85° E 23:45:11 85° E 23:51:38 10° NE
ATLAS 2AS CENTAUR R/B 4.2 23:48:54 25° E 23:48:54 25° E 23:53:21 10° NE
SL-16 R/B 3.6 23:50:52 26° ENE 23:50:52 26° ENE 23:53:43 10° NE
ASTEX 1 4.1 23:49:14 47° W 23:49:14 47° W 23:53:52 10° NNW
Meteor 2-11 Rocket 4.3 23:49:33 79° WSW 23:49:49 82° W 23:55:56 10° N
